Tracking 30743 objects as of 22-Jun-2025
HD Live streaming from Space Station
objects crossing your sky now

THORAD AGENA D DEB

Track THORAD AGENA D DEB now!
10-day predictions


NORAD ID: 4187
Int'l Code: 1969-082BA
Perigee: 531.2 km
Apogee: 548.9 km
Inclination: 70.0 °
Period: 95.3 minutes
Semi major axis: 6911 km
RCS: 0.0694 m2 (small)
Launch date: September 30, 1969
Source: United States (US)
Launch site: AIR FORCE WESTERN TEST RANGE (AFWTR)

Note: This is SATELLITE DEBRIS
Your satellite tracking list
Your tracking list is empty




NASA's NSSDC Master Catalog

Two Line Element Set (TLE):
1  4187U 69082BA  25172.34482336  .00017213  00000-0  10281-2 0  9993
2  4187  69.9564 308.1207 0012847 234.7113 125.2852 15.11081207935766
Source of the keplerian elements: AFSPC